SCP
0 0 -0 -0 -0 -0 -0 0 0 0 0 0 0 0 0 0 0 0 0 0 0 0 0 0 0 0 0 0 0 0 0 0
0 0 0 0 0 -0 -0 0 0 0 0 0 0 0 0 0 0 0 0 0 0 0 0 0 0 0 0 0 0 0 0 0
-0 -0 -0 -0 -0 0 0 0 0 0 0 0 0 0 0 0 0 0 0 0 0 0 0 0 0 0 0 0 0 0 0 0
0 0 0 0 -0 0 0 0 0 0 0 0 0 0 0 0 0 0 0 0 0 0 0 0 0 0 0 0 0 0 0 0
0 0 0 0 0 0 0 0 0 0 0 0 0 0 0 0 0 0 0 0 0 0 0 0 0 0 0 0 0 0 0 0
0 0 0 0 0 0 0 0 0 0 0 0 0 0 0 0 0 0 0 0 0 0 0 0 0 0 0 0 0 0 0 0
0 0 0 0 0 0 0 0 0 0 0 0 0 0 0 0 0 0 0 0 0 0 0 0 0 0 0 0 0 0 0 0
0 0 0 0 0 0 0 0 0 0 0 0 0 0 0 0 0 0 0 0 0 0 0 0 0 0 0 0 0 0 0 0
0 0 -0 -0 -0 0 0 0 0 0 0 0 0 0 0 0 0 0 0 0 0 0 0 0 0 0 0 0 0 0 0 0
0 0 0 0 0 0 0 0 0 0 0 0 0 0 0 0 0 0 0 0 0 0 0 0 0 0 0 0 0 0 0 0
0 0 0 0 0 0 0 0 0 0 0 0 0 0 0 0 0 0 0 0 0 0 0 0 0 0 0 0 0 0 0 0
0 0 0 0 0 0 0 0 0 0 0 0 0 0 0 0 0 0 0 0 0 0 0 0 0 0 0 0 0 0 0 0
0 0 0 0 0 0 0 0 0 0 0 0 0 0 0 0 0 0 0 0 0 0 0 0 0 0 0 0 0 0 0 0
0 0 0 0 0 0 0 0 0 0 0 0 0 0 0 0 0 0 0 0 0 0 0 0 0 0 0 0 0 0 0 0
0 0 0 0 0 0 0 0 0 0 0 0 0 0 0 0 0 0 0 0 0 0 0 0 0 0 0 0 0 0 0 0
0 0 0 0 0 0 0 0 0 0 0 0 0 0 0 0 0 0 0 0 0 0 0 0 0 0 0 0 0 0 0 0
0 0 0 0 0 0 0 0 0 0 0 0 0 0 0 0 0 0 0 0 0 0 0 0 0 0 0 0 0 0 0 0
0 0 0 0 0 0 0 0 0 0 0 0 0 0 0 0 0 0 0 0 0 0 0 0 0 0 0 0 0 0 -0 0
0 0 0 0 0 0 0 0 0 0 0 0 0 0 0 0 0 0 0 0 0 0 0 0 0 0 0 -0 -0 -0 -0 0
0 0 0 0 0 0 0 0 0 0 0 0 0 0 0 0 0 0 0 0 0 0 0 0 0 0 0 0 0 0 0 0
Wind_Speed_500mb
27 39 52 53 56 56 56 51 38 39 42 45 45 47 49 50 55 59 59 60 63 65 68 68 70 73 79 93 100 101 111 111
45 36 50 47 50 49 53 56 51 43 34 29 27 28 34 41 47 52 52 56 61 65 66 68 68 66 72 82 96 103 105 110
61 49 49 53 53 53 54 55 53 49 41 35 30 35 44 45 49 55 59 61 65 68 71 71 69 68 71 77 86 95 97 104
43 50 55 58 59 56 49 44 44 49 53 52 53 54 54 57 58 64 68 70 70 74 77 75 72 72 71 73 77 81 84 98
45 50 55 57 59 57 57 54 49 49 53 58 59 59 61 64 68 72 74 78 78 78 76 75 74 72 71 72 74 75 76 87
33 37 39 40 43 50 52 50 53 52 54 58 61 66 69 70 72 75 78 79 76 76 77 76 75 74 74 72 73 72 77 84
40 42 44 47 49 51 57 63 59 59 63 64 65 66 68 72 74 74 71 72 75 78 75 74 72 69 68 71 75 75 77 83
38 40 42 45 50 54 59 66 69 66 64 63 64 67 66 67 69 71 69 68 67 67 67 70 67 64 66 68 72 74 76 79
46 48 47 47 48 49 52 57 62 65 63 60 59 58 57 61 66 68 68 68 66 66 63 63 62 58 60 61 67 70 75 75
51 53 56 58 61 61 60 58 57 60 64 65 63 63 60 60 62 66 69 69 67 65 59 59 58 54 55 57 65 71 73 72
54 56 58 59 64 68 67 67 67 62 60 60 66 71 70 67 66 62 63 65 65 64 59 57 57 52 54 55 64 67 66 66
52 52 55 59 64 66 68 70 73 74 74 72 66 62 68 70 69 70 64 59 57 59 56 55 53 49 50 51 61 58 58 60
62 62 62 63 67 68 69 69 70 69 71 69 68 73 71 67 64 61 61 60 54 49 46 41 40 40 43 48 47 42 47 48
65 66 64 66 68 72 70 68 66 66 62 61 59 59 62 63 56 54 51 48 45 39 33 34 34 35 34 32 37 39 27 27
70 68 70 68 67 68 68 68 67 63 59 58 60 60 56 52 48 46 41 36 30 26 24 26 26 24 20 23 37 33 18 13
76 78 78 75 70 66 63 60 60 57 57 61 59 54 50 47 42 38 33 30 23 19 19 17 15 13 15 25 31 27 14 12
79 79 78 75 73 66 62 56 56 61 63 59 54 50 49 43 34 26 19 15 11 9 8 8 11 15 19 20 24 16 12 15
79 76 73 69 64 61 63 60 58 60 56 52 46 40 29 22 15 13 10 10 9 10 11 8 9 14 21 21 21 18 20 21
77 69 66 64 62 61 62 66 64 58 50 42 33 24 17 13 9 6 5 5 5 7 7 10 10 16 22 19 16 18 21 15
71 68 65 66 64 62 60 59 56 47 39 33 28 23 18 14 15 12 10 7 5 6 7 10 15 16 18 19 22 23 24 22
Wind_Direction_500mb
22 19 7 3 2 3 7 0 335 300 280 270 267 266 268 271 270 269 272 271 270 268 265 263 262 260 259 256 253 253 255 255
359 347 351 352 354 354 354 351 346 340 310 291 281 279 282 281 280 275 274 273 273 272 271 268 266 265 263 261 257 257 255 255
338 341 340 340 340 338 337 335 332 325 318 297 290 301 301 293 289 282 278 275 274 273 272 269 267 266 264 263 262 260 255 253
333 321 316 316 323 329 332 326 320 315 311 301 290 291 292 289 286 285 280 273 269 269 269 270 270 271 270 268 266 263 257 258
318 314 310 307 308 311 311 312 309 301 297 291 289 290 290 287 283 283 283 278 274 272 272 273 272 268 267 266 264 263 258 256
338 331 327 321 310 309 313 312 308 304 297 293 290 289 286 284 281 281 280 278 277 275 274 272 269 267 268 266 265 263 260 257
349 344 338 330 324 316 310 312 310 302 299 296 290 284 283 283 284 283 282 279 277 275 274 273 269 268 268 267 265 260 257 258
343 342 340 336 332 326 315 308 307 306 302 300 299 295 292 288 286 286 286 283 279 275 274 273 272 270 269 268 265 261 260 260
332 326 322 321 320 318 321 319 316 311 307 305 302 300 299 297 294 289 285 283 282 279 275 272 269 266 264 264 262 258 257 259
327 321 315 314 313 313 313 311 315 318 314 310 307 304 302 300 297 292 288 284 281 277 272 269 268 266 263 260 258 261 259 261
326 323 319 317 313 308 310 310 312 306 308 314 316 310 306 305 301 298 293 289 282 275 270 266 265 262 263 259 258 259 259 259
326 324 322 322 316 315 311 309 304 305 304 305 302 305 309 310 308 304 298 290 284 277 271 268 266 263 258 254 261 263 260 260
321 319 320 322 320 318 313 310 306 303 302 300 301 300 296 296 296 295 293 292 286 283 282 275 268 262 257 255 255 256 257 262
314 312 312 317 317 315 316 310 306 304 301 299 299 298 300 296 292 290 284 281 279 281 282 283 271 267 260 251 232 243 251 252
311 309 308 313 312 311 312 310 308 305 305 304 304 303 299 293 288 286 286 282 280 279 277 273 272 268 251 210 222 239 256 235
305 304 306 308 308 306 305 304 303 305 307 309 303 300 296 289 284 279 276 274 268 263 260 258 254 246 221 206 215 232 243 217
300 299 300 302 303 303 303 298 299 301 302 302 298 292 287 280 272 267 257 250 247 231 215 211 207 184 177 183 201 211 200 191
298 297 296 295 296 300 301 296 294 292 290 290 290 287 275 262 247 236 207 169 128 105 101 115 131 140 156 174 172 165 170 186
297 297 294 290 288 291 295 296 292 288 285 282 279 266 254 237 223 216 198 197 163 138 127 121 121 144 144 155 158 166 191 204
295 295 293 290 287 285 286 286 287 282 274 268 259 248 221 211 208 220 205 205 192 150 135 133 125 133 150 165 193 193 203 230
Wind_Speed_850mb
27 39 52 53 56 56 56 51 38 39 42 45 45 47 49 50 55 59 59 60 63 65 68 68 70 73 79 93 100 101 111 111
45 36 50 47 50 49 53 56 51 43 34 29 27 28 34 41 47 52 52 56 61 65 66 68 68 66 72 82 96 103 105 110
61 49 49 53 53 53 54 55 53 49 41 35 30 35 44 45 49 55 59 61 65 68 71 71 69 68 71 77 86 95 97 104
43 50 55 58 59 56 49 44 44 49 53 52 53 54 54 57 58 64 68 70 70 74 77 75 72 72 71 73 77 81 84 98
45 50 55 57 59 57 57 54 49 49 53 58 59 59 61 64 68 72 74 78 78 78 76 75 74 72 71 72 74 75 76 87
33 37 39 40 43 50 52 50 53 52 54 58 61 66 69 70 72 75 78 79 76 76 77 76 75 74 74 72 73 72 77 84
40 42 44 47 49 51 57 63 59 59 63 64 65 66 68 72 74 74 71 72 75 78 75 74 72 69 68 71 75 75 77 83
38 40 42 45 50 54 59 66 69 66 64 63 64 67 66 67 69 71 69 68 67 67 67 70 67 64 66 68 72 74 76 79
46 48 47 47 48 49 52 57 62 65 63 60 59 58 57 61 66 68 68 68 66 66 63 63 62 58 60 61 67 70 75 75
51 53 56 58 61 61 60 58 57 60 64 65 63 63 60 60 62 66 69 69 67 65 59 59 58 54 55 57 65 71 73 72
54 56 58 59 64 68 67 67 67 62 60 60 66 71 70 67 66 62 63 65 65 64 59 57 57 52 54 55 64 67 66 66
52 52 55 59 64 66 68 70 73 74 74 72 66 62 68 70 69 70 64 59 57 59 56 55 53 49 50 51 61 58 58 60
62 62 62 63 67 68 69 69 70 69 71 69 68 73 71 67 64 61 61 60 54 49 46 41 40 40 43 48 47 42 47 48
65 66 64 66 68 72 70 68 66 66 62 61 59 59 62 63 56 54 51 48 45 39 33 34 34 35 34 32 37 39 27 27
70 68 70 68 67 68 68 68 67 63 59 58 60 60 56 52 48 46 41 36 30 26 24 26 26 24 20 23 37 33 18 13
76 78 78 75 70 66 63 60 60 57 57 61 59 54 50 47 42 38 33 30 23 19 19 17 15 13 15 25 31 27 14 12
79 79 78 75 73 66 62 56 56 61 63 59 54 50 49 43 34 26 19 15 11 9 8 8 11 15 19 20 24 16 12 15
79 76 73 69 64 61 63 60 58 60 56 52 46 40 29 22 15 13 10 10 9 10 11 8 9 14 21 21 21 18 20 21
77 69 66 64 62 61 62 66 64 58 50 42 33 24 17 13 9 6 5 5 5 7 7 10 10 16 22 19 16 18 21 15
71 68 65 66 64 62 60 59 56 47 39 33 28 23 18 14 15 12 10 7 5 6 7 10 15 16 18 19 22 23 24 22
Wind_Direction_850mb
22 19 7 3 2 3 7 0 335 300 280 270 267 266 268 271 270 269 272 271 270 268 265 263 262 260 259 256 253 253 255 255
359 347 351 352 354 354 354 351 346 340 310 291 281 279 282 281 280 275 274 273 273 272 271 268 266 265 263 261 257 257 255 255
338 341 340 340 340 338 337 335 332 325 318 297 290 301 301 293 289 282 278 275 274 273 272 269 267 266 264 263 262 260 255 253
333 321 316 316 323 329 332 326 320 315 311 301 290 291 292 289 286 285 280 273 269 269 269 270 270 271 270 268 266 263 257 258
318 314 310 307 308 311 311 312 309 301 297 291 289 290 290 287 283 283 283 278 274 272 272 273 272 268 267 266 264 263 258 256
338 331 327 321 310 309 313 312 308 304 297 293 290 289 286 284 281 281 280 278 277 275 274 272 269 267 268 266 265 263 260 257
349 344 338 330 324 316 310 312 310 302 299 296 290 284 283 283 284 283 282 279 277 275 274 273 269 268 268 267 265 260 257 258
343 342 340 336 332 326 315 308 307 306 302 300 299 295 292 288 286 286 286 283 279 275 274 273 272 270 269 268 265 261 260 260
332 326 322 321 320 318 321 319 316 311 307 305 302 300 299 297 294 289 285 283 282 279 275 272 269 266 264 264 262 258 257 259
327 321 315 314 313 313 313 311 315 318 314 310 307 304 302 300 297 292 288 284 281 277 272 269 268 266 263 260 258 261 259 261
326 323 319 317 313 308 310 310 312 306 308 314 316 310 306 305 301 298 293 289 282 275 270 266 265 262 263 259 258 259 259 259
326 324 322 322 316 315 311 309 304 305 304 305 302 305 309 310 308 304 298 290 284 277 271 268 266 263 258 254 261 263 260 260
321 319 320 322 320 318 313 310 306 303 302 300 301 300 296 296 296 295 293 292 286 283 282 275 268 262 257 255 255 256 257 262
314 312 312 317 317 315 316 310 306 304 301 299 299 298 300 296 292 290 284 281 279 281 282 283 271 267 260 251 232 243 251 252
311 309 308 313 312 311 312 310 308 305 305 304 304 303 299 293 288 286 286 282 280 279 277 273 272 268 251 210 222 239 256 235
305 304 306 308 308 306 305 304 303 305 307 309 303 300 296 289 284 279 276 274 268 263 260 258 254 246 221 206 215 232 243 217
300 299 300 302 303 303 303 298 299 301 302 302 298 292 287 280 272 267 257 250 247 231 215 211 207 184 177 183 201 211 200 191
298 297 296 295 296 300 301 296 294 292 290 290 290 287 275 262 247 236 207 169 128 105 101 115 131 140 156 174 172 165 170 186
297 297 294 290 288 291 295 296 292 288 285 282 279 266 254 237 223 216 198 197 163 138 127 121 121 144 144 155 158 166 191 204
295 295 293 290 287 285 286 286 287 282 274 268 259 248 221 211 208 220 205 205 192 150 135 133 125 133 150 165 193 193 203 230